User: anonymous   Login
Location: Burland Observatory
(39.4088°N, 105.4217°W)
Time: 01:29:19
(UTC-07:00)
Language:

S-56A Canister/Altair - Orbit

View from above orbital plane
View from above orbital plane
View from above satellite
View from above satellite

Ground track
Ground track

The orbit data is extracted from the following two-line orbital elements,

1    82U 61004B   19346.84965073 -.00000027 +00000-0 +24567-5 0  9995
2    82 038.8614 173.0322 1174996 258.1613 088.5194 12.26056430784781
Epoch (UTC): 12 December 2019 20:23:29
Eccentricity: 0.1174996
inclination: 38.8614°
perigee height: 633 km
apogee height: 2500 km
right ascension of ascending node: 173.0322°
argument of perigee: 258.1613°
revolutions per day: 12.26056430
mean anomaly at epoch: 88.5194°
orbit number at epoch: 78478

The dashed part of the orbit path shows where the satellite is in the earth's shadow,  

DLR